TimeCDT,TemperatureF,Dew PointF,Humidity,Sea Level PressureIn,VisibilityMPH,Wind Direction,Wind SpeedMPH,Gust SpeedMPH,PrecipitationIn,Events,Conditions,WindDirDegrees,DateUTC
12:15 AM,62.6,53.6,72,29.89,10.0,SE,8.1,-,N/A,,Clear,130,2013-04-23 05:15:00
12:35 AM,62.6,53.6,72,29.89,10.0,ESE,6.9,-,N/A,,Clear,120,2013-04-23 05:35:00
12:55 AM,62.6,53.6,72,29.88,10.0,SE,9.2,-,N/A,,Clear,130,2013-04-23 05:55:00
1:15 AM,62.6,53.6,72,29.88,10.0,SE,11.5,-,N/A,,Clear,140,2013-04-23 06:15:00
1:35 AM,62.6,53.6,72,29.88,10.0,SSE,12.7,-,N/A,,Clear,150,2013-04-23 06:35:00
1:55 AM,62.6,53.6,72,29.87,10.0,SSE,13.8,-,N/A,,Clear,160,2013-04-23 06:55:00
2:15 AM,62.6,53.6,72,29.87,10.0,SSE,13.8,20.7,N/A,,Clear,160,2013-04-23 07:15:00
2:35 AM,62.6,55.4,77,29.86,10.0,SSE,12.7,-,N/A,,Clear,160,2013-04-23 07:35:00
2:55 AM,62.6,55.4,77,29.85,10.0,SSE,11.5,-,N/A,,Clear,160,2013-04-23 07:55:00
3:15 AM,62.6,53.6,72,29.84,10.0,SSE,13.8,-,N/A,,Clear,160,2013-04-23 08:15:00
3:35 AM,62.6,53.6,72,29.83,10.0,SSE,15.0,-,N/A,,Clear,160,2013-04-23 08:35:00
3:55 AM,62.6,53.6,72,29.84,10.0,SSE,9.2,-,N/A,,Clear,160,2013-04-23 08:55:00
4:15 AM,60.8,53.6,77,29.84,10.0,SSE,9.2,-,N/A,,Clear,160,2013-04-23 09:15:00
4:35 AM,60.8,53.6,77,29.84,10.0,South,9.2,-,N/A,,Clear,170,2013-04-23 09:35:00
5:55 AM,60.8,53.6,77,29.91,10.0,Calm,Calm,-,N/A,,Overcast,0,2013-04-23 10:55:00
6:15 AM,60.8,53.6,77,29.92,10.0,Calm,Calm,-,N/A,,Overcast,0,2013-04-23 11:15:00
6:35 AM,60.8,53.6,77,29.91,10.0,SSE,8.1,-,N/A,,Overcast,150,2013-04-23 11:35:00
6:55 AM,60.8,53.6,77,29.91,10.0,SSE,10.4,-,N/A,,Overcast,150,2013-04-23 11:55:00
7:15 AM,60.8,55.4,82,29.92,10.0,SSE,9.2,-,N/A,,Overcast,160,2013-04-23 12:15:00
7:35 AM,60.8,55.4,82,29.93,10.0,SSE,10.4,-,N/A,,Overcast,160,2013-04-23 12:35:00
7:55 AM,60.8,55.4,82,29.94,7.0,SSE,10.4,16.1,N/A,,Overcast,160,2013-04-23 12:55:00
8:15 AM,62.6,57.2,82,29.95,7.0,South,9.2,-,N/A,,Overcast,170,2013-04-23 13:15:00
8:35 AM,62.6,57.2,82,29.95,7.0,South,11.5,-,N/A,,Overcast,170,2013-04-23 13:35:00
8:55 AM,62.6,59.0,88,29.95,4.0,SSE,15.0,-,N/A,,Overcast,150,2013-04-23 13:55:00
9:15 AM,62.6,59.0,88,29.95,5.0,SSE,13.8,-,N/A,,Overcast,160,2013-04-23 14:15:00
9:35 AM,62.6,59.0,88,29.95,4.0,SSE,16.1,-,N/A,,Overcast,150,2013-04-23 14:35:00
9:55 AM,62.6,59.0,88,29.96,7.0,SSE,15.0,-,N/A,,Overcast,160,2013-04-23 14:55:00
10:15 AM,64.4,59.0,83,29.96,10.0,SSE,12.7,-,N/A,,Overcast,150,2013-04-23 15:15:00
10:35 AM,64.4,59.0,83,29.96,10.0,SSE,11.5,-,N/A,,Overcast,160,2013-04-23 15:35:00
10:55 AM,66.2,59.0,78,29.97,10.0,South,11.5,16.1,N/A,,Overcast,180,2013-04-23 15:55:00
11:15 AM,68.0,59.0,73,29.97,10.0,South,12.7,-,N/A,,Overcast,170,2013-04-23 16:15:00
11:35 AM,68.0,60.8,78,29.97,10.0,South,11.5,-,N/A,,Overcast,180,2013-04-23 16:35:00
11:55 AM,68.0,60.8,78,29.97,10.0,South,11.5,-,N/A,,Overcast,180,2013-04-23 16:55:00
12:15 PM,64.4,55.4,73,29.99,10.0,West,15.0,18.4,N/A,,Overcast,270,2013-04-23 17:15:00
12:35 PM,55.4,51.8,88,30.00,4.0,West,12.7,19.6,0.01,,Light Drizzle,270,2013-04-23 17:35:00
12:55 PM,53.6,50.0,88,30.00,5.0,WNW,13.8,19.6,0.01,,Overcast,290,2013-04-23 17:55:00
1:15 PM,53.6,50.0,88,30.00,7.0,WNW,15.0,19.6,N/A,,Overcast,300,2013-04-23 18:15:00
1:35 PM,53.6,50.0,88,30.01,10.0,WNW,15.0,18.4,N/A,,Overcast,300,2013-04-23 18:35:00
1:55 PM,51.8,48.2,88,30.01,10.0,WNW,12.7,-,N/A,,Overcast,300,2013-04-23 18:55:00
2:15 PM,51.8,46.4,82,30.01,10.0,WNW,13.8,-,N/A,,Overcast,300,2013-04-23 19:15:00
2:35 PM,51.8,46.4,82,30.01,10.0,NW,13.8,-,N/A,,Overcast,320,2013-04-23 19:35:00
2:55 PM,51.8,46.4,82,30.01,10.0,NW,12.7,-,N/A,,Overcast,320,2013-04-23 19:55:00
3:15 PM,51.8,44.6,76,30.01,10.0,NW,12.7,17.3,N/A,,Overcast,310,2013-04-23 20:15:00
3:35 PM,51.8,44.6,76,30.01,10.0,NW,10.4,16.1,N/A,,Overcast,310,2013-04-23 20:35:00
3:55 PM,51.8,44.6,76,30.00,10.0,NW,11.5,-,N/A,,Overcast,310,2013-04-23 20:55:00
4:15 PM,51.8,44.6,76,30.00,10.0,NW,12.7,-,N/A,,Overcast,310,2013-04-23 21:15:00
4:35 PM,50.0,44.6,82,30.00,10.0,NW,15.0,-,N/A,,Overcast,310,2013-04-23 21:35:00
4:55 PM,50.0,42.8,76,30.01,10.0,NW,13.8,19.6,N/A,,Overcast,310,2013-04-23 21:55:00
5:15 PM,50.0,42.8,76,30.02,10.0,NNW,15.0,-,N/A,,Overcast,330,2013-04-23 22:15:00
5:35 PM,48.2,42.8,82,30.02,10.0,NW,13.8,18.4,N/A,,Overcast,320,2013-04-23 22:35:00
5:55 PM,46.4,42.8,87,30.03,10.0,NNW,12.7,18.4,N/A,,Overcast,330,2013-04-23 22:55:00
6:15 PM,46.4,41.0,81,30.03,10.0,NW,12.7,19.6,N/A,,Overcast,320,2013-04-23 23:15:00
6:35 PM,46.4,41.0,81,30.04,10.0,NNW,12.7,19.6,N/A,,Overcast,330,2013-04-23 23:35:00
6:55 PM,46.4,41.0,81,30.04,10.0,NNW,17.3,-,N/A,,Overcast,330,2013-04-23 23:55:00
7:15 PM,46.4,39.2,76,30.05,10.0,North,12.7,18.4,N/A,,Overcast,350,2013-04-24 00:15:00
7:35 PM,46.4,39.2,76,30.05,10.0,NNW,11.5,-,N/A,,Overcast,340,2013-04-24 00:35:00
7:55 PM,44.6,39.2,81,30.05,10.0,NNW,13.8,-,N/A,,Overcast,340,2013-04-24 00:55:00
8:15 PM,44.6,39.2,81,30.06,10.0,NNW,12.7,20.7,N/A,,Overcast,340,2013-04-24 01:15:00
8:35 PM,44.6,39.2,81,30.07,10.0,NNW,13.8,-,N/A,,Overcast,330,2013-04-24 01:35:00
8:55 PM,44.6,39.2,81,30.07,10.0,NNW,12.7,-,N/A,,Overcast,330,2013-04-24 01:55:00
9:15 PM,44.6,37.4,76,30.08,10.0,NNW,9.2,20.7,N/A,,Overcast,340,2013-04-24 02:15:00
9:35 PM,44.6,37.4,76,30.10,10.0,NNW,15.0,21.9,N/A,,Overcast,330,2013-04-24 02:35:00
9:55 PM,44.6,37.4,76,30.10,10.0,NNW,11.5,18.4,N/A,,Overcast,340,2013-04-24 02:55:00
10:15 PM,44.6,37.4,76,30.13,10.0,NNW,17.3,23.0,N/A,,Overcast,330,2013-04-24 03:15:00
10:35 PM,44.6,37.4,76,30.13,10.0,NNW,15.0,18.4,N/A,,Overcast,340,2013-04-24 03:35:00
10:55 PM,44.6,37.4,76,30.14,10.0,NNW,17.3,24.2,N/A,,Overcast,340,2013-04-24 03:55:00
11:15 PM,42.8,37.4,81,30.14,10.0,NNW,19.6,25.3,N/A,,Overcast,330,2013-04-24 04:15:00
11:35 PM,42.8,37.4,81,30.16,10.0,NNW,11.5,18.4,N/A,,Overcast,330,2013-04-24 04:35:00
11:55 PM,42.8,37.4,81,30.16,10.0,NNW,13.8,21.9,N/A,,Overcast,330,2013-04-24 04:55:00